STARLINK-1255, 45399

Orbit data source: Space-Track

STARLINK-1255, 45399 is a payload satellite owned by SpaceX/Seattle (US) in LEO that was launched on Wed, 18 Mar 2020 UTC via an FALCON 9 launch vehicle from the Air Force Eastern Test Range (AFETR). Payload-class satellites include a variety of spacecraft equipped with specific instruments for various scientific and technological missions. These include communications satellites like Starlink; space stations such as the ISS; scientific satellites like the Hubble; Earth observation satellites from companies like Planet Labs, Umbra, and HawkEye 360; GPS; miniature CubeSats for education and research; and military/defense satellites.

Loading next visibility...
Identifier
45399, 2020-019AR
Orbit
LEO
Country
Flag of USUS
Related business
Manufacturer
SpaceX/Seattle
Mission
Operational Commercial Communications
Bus & Motor
STARLINK, Unknown motor
Mass
260 kg wet, ~248 kg dry
Launch date (UTC)
2020-03-18 (6 years ago)
Launch vehicle
FALCON 9
Launch site
Air Force Eastern Test Range (AFETR)
Object type
Payload
Rocket body
Debris
Shape & HBR
Box + 1 Pan, 10.1 m
Radar Cross Section
13.562 m², Large (>1 m²)

Expand to show TLE details & history
Last TLE update: 11 hours ago

TLE from 11 hours ago
0 STARLINK-1255
1 45399U 20019AR  25293.66671296  .00378888  00000-0  14132-1 0  9990
2 45399  53.0523  44.4639 0001146  47.7562 199.6462 15.25259841  5805
Epoch: 2025-10-20T16:00Z
TLE epoch observation values (Epoch: 2025-10-20T16:00:03.999Z)
Latitude
-47.72512°
Longitude
10.44216°
Altitude
507.076 km
Speed
7.61 km/s
True Right ascension
18h 39m 17s
True Declination
-47° 32' 51"
Sunlit
Object was in daylight at epoch
Visualization orbit readout
Latitude
Unknown
Longitude
Unknown
Altitude
Unknown
Speed
Unknown
Apparent Right ascension
Unknown
Apparent Declination
Unknown
Sunlit
N/A
Visualization observer readout
Local Sidereal Time
22:15:23
Azimuth
Unknown
Elevation
Unknown
Doppler factor
Unknown
Orbital elements
Apogee altitude
491.066 km
Perigee altitude
489.491 km
Semi-major axis
6,868.416 km
Eccentricity
0.00011
Inclination
53.0523°
RAAN
44.4639°
Arg. of periapsis
47.7562°
True anomaly
199.64179°
Mean anomaly
199.6462°
Eccentric anomaly
199.64399°
Mean motion
3.81293 °/min
Orbital period
94.42 mins
BSTAR
0.014132
Loading maneuver chart data...
Computing Atmospheric mass density...
Loading historical data...
Loading historical data...
Loading historical data...
Loading historical data...
Loading historical data...
Loading historical data...
Loading historical data...

Documentation

Showing up to 5 results
|